Flag for Germany Weather past 2 weeks in Siegburg, North Rhine-Westphalia, Germany

Now
62 °F

Partly sunny.


Feels Like: 62 °F
Forecast: 41 / 52 °F
Wind: 6 mph from Southwest

Location: Bonn-Hangelar


UV Index: 0 (Low)

Visibility: 31 mi


Pressure: 29.99 "Hg

Humidity: 34%

Dew point: 34 °F

Location of SiegburgLocation

Historic Weather in Siegburg

°F

Siegburg temperature yesterday

Maximum temperature yesterday: 56 °F (at 6:00 PM)
Minimum temperature yesterday: 32 °F (at 6:00 AM)
Average temperature yesterday: 45 °F

Past Weeks' High & Low Weather Summary

 TemperatureHumidityPressure
High67 °F (Apr 3, 1:00 PM)99% (Apr 12, 9:00 AM)30.44 "Hg (Apr 12, 9:00 AM)
Low32 °F (Apr 16, 6:00 AM)29% (Apr 17, 4:00 PM)29.60 "Hg (Apr 3, 1:00 PM)
Average51 °F72%30.07 "Hg
* Reported Apr 2 6:00 PM — Apr 17 6:00 PM, Siegburg, Weather by CustomWeather, © 2014

Note: Actual official high and low records may vary slightly from our data, if they occured in-between our weather recording intervals... More about our weather records

Advertising

Historic Weather Conditions — Data for Previous 24 hours

 ConditionsComfort  
Time TempWeatherWind HumidityBarometerVisibility
6:00 PM
Apr 17
62 °FPartly sunny.6 mph34%29.99 "Hg31 mi
5:00 PM62 °FPassing clouds.6 mph31%30.02 "Hg31 mi
4:00 PM61 °FPassing clouds.6 mph29%30.05 "Hg31 mi
3:00 PM61 °FPartly sunny.5 mph38%30.09 "Hg31 mi
2:00 PM59 °FOvercast.6 mph34%30.14 "Hg31 mi
1:00 PM57 °FOvercast.5 mph36%30.16 "Hg31 mi
12:00 PM56 °FOvercast.5 mph40%30.19 "Hg31 mi
11:00 AM54 °FPartly sunny.6 mph44%30.21 "Hg31 mi
10:00 AM52 °FScattered clouds.6 mph46%30.23 "Hg31 mi
9:00 AM49 °FPassing clouds.5 mph52%30.25 "Hg37 mi
8:00 AM45 °FPassing clouds.3 mph57%30.26 "Hg37 mi
7:00 AM40 °FPassing clouds.7 mph67%30.28 "Hg28 mi
6:00 AM38 °FPassing clouds.5 mph72%30.29 "Hg37 mi
5:00 AM42 °FPassing clouds.3 mph66%30.29 "Hg37 mi
4:00 AM44 °FPassing clouds.5 mph58%30.30 "Hg47 mi
3:00 AM44 °FPassing clouds.5 mph58%30.32 "Hg47 mi
2:00 AM44 °FPassing clouds.5 mph58%30.33 "Hg47 mi
1:00 AM46 °FPassing clouds.6 mph54%30.33 "Hg47 mi
12:00 AM45 °FPassing clouds.5 mph60%30.34 "Hg47 mi
11:00 PM
Apr 16
44 °FPassing clouds.5 mph61%30.35 "Hg43 mi
Weather by CustomWeather, © 2014

See weather overview